Location: La Oliva
(42.2466°N, 2.9955°E)
Time: 10:45:43
(UTC+00:00)

ATLAS 3B R/B - Pass Details

Date: 22 April 2021
Orbit: 1006 x 1189 km, 63.8° (Epoch: 21 April)

Event Time Altitude Azimuth Distance (km) Brightness Sun altitude
Rises 19:21:55 0° 324° (NW) 3,893 6.8 -8.5°
Reaches altitude 10° 19:24:32 10° 325° (NW) 2,960 6.1 -8.9°
Maximum altitude 19:31:37 89° 51° (NE) 1,140 2.9 -10.1°
Drops below altitude 10° 19:38:59 10° 147° (SSE) 3,068 4.6 -11.3°
Enters shadow 19:39:09 - 147° (SSE) 3,128 4.6 -11.3°
